Time,TemperatureF,DewpointF,PressureIn,WindDirection,WindDirectionDegrees,WindSpeedMPH,WindSpeedGustMPH,Humidity,HourlyPrecipIn,Conditions,Clouds,dailyrainin,SoftwareType,DateUTC
2013-06-01 00:00:00,76.1,72.4,30.01,ESE,113,1.1,1.8,88,0.00,,,0.16,WUHU216HW,2013-06-01 04:00:00,
2013-06-01 00:01:00,76.1,72.4,30.01,ESE,113,0.7,1.8,88,0.00,,,0.16,WUHU216HW,2013-06-01 04:01:00,
2013-06-01 00:02:00,76.1,72.4,30.01,ENE,68,0.4,1.8,88,0.00,,,0.00,WUHU216HW,2013-06-01 04:02:00,
2013-06-01 00:07:00,76.3,72.5,30.00,ESE,113,1.6,2.5,88,0.00,,,0.00,WUHU216HW,2013-06-01 04:07:00,
2013-06-01 00:12:00,76.3,72.5,30.00,ESE,113,0.4,2.5,88,0.00,,,0.00,WUHU216HW,2013-06-01 04:12:00,
2013-06-01 00:17:00,76.1,72.4,30.00,NNE,23,1.1,1.8,88,0.00,,,0.00,WUHU216HW,2013-06-01 04:17:00,
2013-06-01 00:23:00,76.1,72.0,30.00,ESE,113,1.1,1.6,87,0.01,,,0.01,WUHU216HW,2013-06-01 04:23:00,
2013-06-01 00:28:00,76.3,72.2,29.99,NE,45,0.4,2.5,87,0.01,,,0.01,WUHU216HW,2013-06-01 04:28:00,
2013-06-01 00:33:00,76.3,72.2,29.99,NE,45,0.4,2.5,87,0.01,,,0.01,WUHU216HW,2013-06-01 04:33:00,
2013-06-01 00:38:00,76.1,72.0,29.99,NE,45,2.9,2.9,87,0.01,,,0.01,WUHU216HW,2013-06-01 04:38:00,
2013-06-01 00:43:00,76.0,72.2,29.99,ENE,68,1.8,2.9,88,0.01,,,0.01,WUHU216HW,2013-06-01 04:43:00,
2013-06-01 00:48:00,76.0,72.2,29.99,NE,45,1.6,2.5,88,0.01,,,0.01,WUHU216HW,2013-06-01 04:48:00,
2013-06-01 00:53:00,76.0,72.2,29.99,NNE,23,0.4,2.5,88,0.01,,,0.01,WUHU216HW,2013-06-01 04:53:00,
2013-06-01 00:58:00,75.8,72.0,29.99,NNE,23,0.9,2.5,88,0.01,,,0.01,WUHU216HW,2013-06-01 04:58:00,
2013-06-01 01:03:00,75.8,72.0,29.99,ESE,113,1.8,2.5,88,0.01,,,0.01,WUHU216HW,2013-06-01 05:03:00,
2013-06-01 01:08:00,75.8,72.0,29.99,NE,45,1.1,2.2,88,0.01,,,0.01,WUHU216HW,2013-06-01 05:08:00,
2013-06-01 01:13:00,75.6,71.8,29.99,ENE,68,0.4,2.0,88,0.01,,,0.01,WUHU216HW,2013-06-01 05:13:00,
2013-06-01 01:19:00,75.6,71.8,29.99,ENE,68,1.1,1.8,88,0.00,,,0.01,WUHU216HW,2013-06-01 05:19:00,
2013-06-01 01:24:00,75.6,71.8,29.98,NNE,23,0.4,2.2,88,0.00,,,0.01,WUHU216HW,2013-06-01 05:24:00,
2013-06-01 01:29:00,75.6,71.8,29.98,East,90,1.3,2.5,88,0.00,,,0.01,WUHU216HW,2013-06-01 05:29:00,
2013-06-01 01:34:00,75.6,71.8,29.98,ESE,113,1.8,2.5,88,0.00,,,0.01,WUHU216HW,2013-06-01 05:34:00,
2013-06-01 01:39:00,75.6,71.8,29.98,NE,45,1.8,2.5,88,0.00,,,0.01,WUHU216HW,2013-06-01 05:39:00,
2013-06-01 01:44:00,75.6,71.8,29.98,ENE,68,3.1,4.0,88,0.00,,,0.01,WUHU216HW,2013-06-01 05:44:00,
2013-06-01 01:49:00,75.6,71.8,29.98,ESE,113,1.1,4.0,88,0.00,,,0.01,WUHU216HW,2013-06-01 05:49:00,
2013-06-01 01:54:00,75.6,71.8,29.97,ESE,113,4.7,4.7,88,0.00,,,0.01,WUHU216HW,2013-06-01 05:54:00,
2013-06-01 02:00:00,75.6,71.8,29.97,ESE,113,2.9,4.7,88,0.00,,,0.01,WUHU216HW,2013-06-01 06:00:00,
2013-06-01 02:05:00,75.6,71.8,29.96,SE,135,1.1,3.1,88,0.00,,,0.01,WUHU216HW,2013-06-01 06:05:00,
2013-06-01 02:10:00,75.6,71.8,29.96,NNE,23,2.0,3.1,88,0.00,,,0.01,WUHU216HW,2013-06-01 06:10:00,
2013-06-01 02:15:00,75.6,71.8,29.96,SE,135,3.4,3.4,88,0.00,,,0.01,WUHU216HW,2013-06-01 06:15:00,
2013-06-01 02:20:00,75.6,71.8,29.96,ESE,113,1.3,3.4,88,0.00,,,0.01,WUHU216HW,2013-06-01 06:20:00,
2013-06-01 02:25:00,75.6,71.8,29.96,ESE,113,2.0,2.9,88,0.00,,,0.01,WUHU216HW,2013-06-01 06:25:00,
2013-06-01 02:30:00,75.6,71.8,29.96,ESE,113,1.3,2.9,88,0.00,,,0.01,WUHU216HW,2013-06-01 06:30:00,
2013-06-01 02:35:00,75.6,71.8,29.95,East,90,2.7,2.7,88,0.00,,,0.01,WUHU216HW,2013-06-01 06:35:00,
2013-06-01 02:40:00,75.8,72.0,29.96,ESE,113,1.1,2.7,88,0.00,,,0.01,WUHU216HW,2013-06-01 06:40:00,
2013-06-01 02:46:00,76.0,72.2,29.96,ESE,113,1.6,1.6,88,0.00,,,0.01,WUHU216HW,2013-06-01 06:46:00,
2013-06-01 02:50:00,76.0,72.2,29.96,ESE,113,0.0,2.5,88,0.00,,,0.01,WUHU216HW,2013-06-01 06:50:00,
2013-06-01 02:55:00,76.0,72.2,29.96,ESE,113,0.7,2.5,88,0.00,,,0.01,WUHU216HW,2013-06-01 06:55:00,
2013-06-01 03:00:00,76.0,72.2,29.96,ESE,113,0.9,2.5,88,0.00,,,0.01,WUHU216HW,2013-06-01 07:00:00,
2013-06-01 03:06:00,76.0,72.2,29.96,ESE,113,2.0,3.1,88,0.00,,,0.01,WUHU216HW,2013-06-01 07:06:00,
2013-06-01 03:11:00,76.0,72.2,29.96,East,90,1.1,3.1,88,0.00,,,0.01,WUHU216HW,2013-06-01 07:11:00,
2013-06-01 03:16:00,76.0,72.2,29.95,North,0,0.4,1.8,88,0.00,,,0.01,WUHU216HW,2013-06-01 07:16:00,
2013-06-01 03:21:00,76.0,72.2,29.95,East,90,0.4,1.3,88,0.00,,,0.01,WUHU216HW,2013-06-01 07:21:00,
2013-06-01 03:26:00,76.0,72.2,29.95,ESE,113,0.4,2.0,88,0.00,,,0.01,WUHU216HW,2013-06-01 07:26:00,
2013-06-01 03:31:00,76.1,72.4,29.95,ESE,113,1.3,2.0,88,0.00,,,0.01,WUHU216HW,2013-06-01 07:31:00,
2013-06-01 03:36:00,76.0,72.2,29.95,ESE,113,0.9,1.8,88,0.00,,,0.01,WUHU216HW,2013-06-01 07:36:00,
2013-06-01 03:41:00,76.0,72.2,29.95,ESE,113,2.5,2.7,88,0.00,,,0.01,WUHU216HW,2013-06-01 07:41:00,
2013-06-01 03:46:00,76.1,72.4,29.94,ESE,113,2.9,2.9,88,0.00,,,0.01,WUHU216HW,2013-06-01 07:46:00,
2013-06-01 03:52:00,76.1,72.4,29.94,East,90,0.4,2.9,88,0.00,,,0.01,WUHU216HW,2013-06-01 07:52:00,
2013-06-01 03:57:00,76.0,72.2,29.94,East,90,1.1,2.0,88,0.00,,,0.01,WUHU216HW,2013-06-01 07:57:00,
2013-06-01 04:02:00,76.0,72.2,29.94,SE,135,1.3,2.2,88,0.00,,,0.01,WUHU216HW,2013-06-01 08:02:00,
2013-06-01 04:07:00,76.0,72.2,29.94,ESE,113,1.1,2.7,88,0.00,,,0.01,WUHU216HW,2013-06-01 08:07:00,
2013-06-01 04:12:00,76.0,72.2,29.95,ESE,113,1.1,2.7,88,0.00,,,0.01,WUHU216HW,2013-06-01 08:12:00,
2013-06-01 04:17:00,76.0,72.2,29.94,ENE,68,0.7,3.4,88,0.00,,,0.01,WUHU216HW,2013-06-01 08:17:00,
2013-06-01 04:22:00,75.8,72.0,29.94,ESE,113,2.0,3.4,88,0.00,,,0.01,WUHU216HW,2013-06-01 08:22:00,
2013-06-01 04:27:00,76.0,72.2,29.95,East,90,2.9,3.1,88,0.00,,,0.01,WUHU216HW,2013-06-01 08:27:00,
2013-06-01 04:33:00,76.0,72.2,29.94,NE,45,2.7,3.1,88,0.00,,,0.01,WUHU216HW,2013-06-01 08:33:00,
2013-06-01 04:38:00,75.8,72.0,29.94,ESE,113,1.8,2.7,88,0.00,,,0.01,WUHU216HW,2013-06-01 08:38:00,
2013-06-01 04:43:00,76.0,72.2,29.94,NE,45,0.4,1.8,88,0.00,,,0.01,WUHU216HW,2013-06-01 08:43:00,
2013-06-01 04:48:00,75.8,72.0,29.94,East,90,1.3,1.8,88,0.00,,,0.01,WUHU216HW,2013-06-01 08:48:00,
2013-06-01 04:53:00,75.8,72.0,29.94,ESE,113,1.1,2.5,88,0.00,,,0.01,WUHU216HW,2013-06-01 08:53:00,
2013-06-01 04:58:00,75.8,72.0,29.94,East,90,1.1,2.7,88,0.00,,,0.01,WUHU216HW,2013-06-01 08:58:00,
2013-06-01 05:03:00,75.8,72.0,29.95,East,90,1.8,2.7,88,0.00,,,0.01,WUHU216HW,2013-06-01 09:03:00,
2013-06-01 05:08:00,75.8,72.0,29.95,ESE,113,0.9,2.0,88,0.00,,,0.01,WUHU216HW,2013-06-01 09:08:00,
2013-06-01 05:13:00,75.8,72.0,29.95,ESE,113,0.4,1.3,88,0.00,,,0.01,WUHU216HW,2013-06-01 09:13:00,
2013-06-01 05:19:00,76.0,72.2,29.95,ESE,113,0.4,1.8,88,0.00,,,0.01,WUHU216HW,2013-06-01 09:19:00,
2013-06-01 05:24:00,76.0,72.2,29.94,East,90,0.4,1.8,88,0.00,,,0.01,WUHU216HW,2013-06-01 09:24:00,
2013-06-01 05:29:00,76.0,72.2,29.94,East,90,1.3,2.2,88,0.00,,,0.01,WUHU216HW,2013-06-01 09:29:00,
2013-06-01 05:34:00,76.0,72.2,29.94,ESE,113,0.4,2.2,88,0.00,,,0.01,WUHU216HW,2013-06-01 09:34:00,
2013-06-01 05:39:00,76.0,72.2,29.94,ESE,113,1.8,1.8,88,0.00,,,0.01,WUHU216HW,2013-06-01 09:39:00,
2013-06-01 05:44:00,76.0,72.2,29.95,ESE,113,0.9,1.8,88,0.00,,,0.01,WUHU216HW,2013-06-01 09:44:00,
2013-06-01 05:49:00,76.0,72.2,29.94,East,90,0.0,1.8,88,0.00,,,0.01,WUHU216HW,2013-06-01 09:49:00,
2013-06-01 05:54:00,76.0,72.2,29.94,ESE,113,0.7,2.2,88,0.00,,,0.01,WUHU216HW,2013-06-01 09:54:00,
2013-06-01 06:00:00,76.0,72.2,29.94,East,90,1.1,2.2,88,0.00,,,0.01,WUHU216HW,2013-06-01 10:00:00,
2013-06-01 06:05:00,75.8,72.0,29.94,SE,135,2.7,2.7,88,0.00,,,0.01,WUHU216HW,2013-06-01 10:05:00,
2013-06-01 06:10:00,75.8,72.0,29.94,ESE,113,0.7,2.7,88,0.00,,,0.01,WUHU216HW,2013-06-01 10:10:00,
2013-06-01 06:15:00,75.8,72.0,29.94,ESE,113,0.7,1.8,88,0.00,,,0.01,WUHU216HW,2013-06-01 10:15:00,
2013-06-01 06:20:00,75.8,72.0,29.94,ESE,113,0.7,1.8,88,0.00,,,0.01,WUHU216HW,2013-06-01 10:20:00,
2013-06-01 06:25:00,75.8,72.0,29.94,ENE,68,0.0,1.8,88,0.00,,,0.01,WUHU216HW,2013-06-01 10:25:00,
2013-06-01 06:30:00,75.6,71.8,29.95,ENE,68,1.8,1.8,88,0.00,,,0.01,WUHU216HW,2013-06-01 10:30:00,
2013-06-01 06:35:00,75.6,71.8,29.95,North,0,0.2,1.8,88,0.00,,,0.01,WUHU216HW,2013-06-01 10:35:00,
2013-06-01 06:41:00,75.4,71.6,29.95,NNE,23,0.4,1.6,88,0.00,,,0.01,WUHU216HW,2013-06-01 10:41:00,
2013-06-01 06:46:00,75.4,71.6,29.95,ENE,68,0.2,2.0,88,0.00,,,0.01,WUHU216HW,2013-06-01 10:46:00,
2013-06-01 06:51:00,75.4,71.6,29.95,ENE,68,1.6,3.4,88,0.00,,,0.01,WUHU216HW,2013-06-01 10:51:00,
2013-06-01 06:56:00,75.2,71.5,29.95,North,0,0.4,3.4,88,0.00,,,0.01,WUHU216HW,2013-06-01 10:56:00,
2013-06-01 07:01:00,75.1,71.3,29.96,NE,45,0.4,2.7,88,0.00,,,0.01,WUHU216HW,2013-06-01 11:01:00,
2013-06-01 07:06:00,74.9,71.1,29.95,NNE,23,0.9,2.5,88,0.00,,,0.01,WUHU216HW,2013-06-01 11:06:00,
2013-06-01 07:11:00,74.9,71.1,29.96,East,90,1.6,2.5,88,0.00,,,0.01,WUHU216HW,2013-06-01 11:11:00,
2013-06-01 07:16:00,75.1,71.3,29.96,ENE,68,1.8,1.8,88,0.00,,,0.01,WUHU216HW,2013-06-01 11:16:00,
2013-06-01 07:21:00,75.1,71.3,29.96,NNW,338,0.4,1.8,88,0.00,,,0.01,WUHU216HW,2013-06-01 11:21:00,
2013-06-01 07:26:00,75.1,71.3,29.97,ESE,113,0.2,1.8,88,0.00,,,0.01,WUHU216HW,2013-06-01 11:26:00,
2013-06-01 07:31:00,75.1,71.3,29.97,ESE,113,0.4,2.2,88,0.00,,,0.01,WUHU216HW,2013-06-01 11:31:00,
2013-06-01 07:37:00,75.1,71.3,29.97,NNE,23,0.4,3.1,88,0.00,,,0.01,WUHU216HW,2013-06-01 11:37:00,
2013-06-01 07:42:00,75.2,71.5,29.97,SE,135,1.1,3.1,88,0.00,,,0.01,WUHU216HW,2013-06-01 11:42:00,
2013-06-01 07:47:00,75.2,71.5,29.97,East,90,0.4,1.8,88,0.00,,,0.01,WUHU216HW,2013-06-01 11:47:00,
2013-06-01 07:52:00,75.2,71.5,29.97,SSE,158,0.9,1.3,88,0.00,,,0.01,WUHU216HW,2013-06-01 11:52:00,
2013-06-01 07:57:00,75.2,71.5,29.98,NE,45,0.4,1.8,88,0.00,,,0.01,WUHU216HW,2013-06-01 11:57:00,
2013-06-01 08:02:00,75.4,71.6,29.98,ESE,113,3.4,3.4,88,0.00,,,0.01,WUHU216HW,2013-06-01 12:02:00,
2013-06-01 08:07:00,75.6,71.8,29.98,ESE,113,2.5,3.4,88,0.00,,,0.01,WUHU216HW,2013-06-01 12:07:00,
2013-06-01 08:12:00,75.8,72.0,29.98,East,90,2.2,3.4,88,0.00,,,0.01,WUHU216HW,2013-06-01 12:12:00,
2013-06-01 08:18:00,76.0,72.2,29.98,ESE,113,2.2,3.8,88,0.00,,,0.01,WUHU216HW,2013-06-01 12:18:00,
2013-06-01 08:23:00,76.0,72.2,29.98,SE,135,1.8,3.8,88,0.00,,,0.01,WUHU216HW,2013-06-01 12:23:00,
2013-06-01 08:28:00,76.3,72.5,29.98,ESE,113,0.9,2.2,88,0.00,,,0.01,WUHU216HW,2013-06-01 12:28:00,
2013-06-01 08:33:00,76.5,72.7,29.98,SE,135,1.8,2.5,88,0.00,,,0.01,WUHU216HW,2013-06-01 12:33:00,
2013-06-01 08:38:00,76.7,72.9,29.99,NNE,23,1.1,2.5,88,0.00,,,0.01,WUHU216HW,2013-06-01 12:38:00,
2013-06-01 08:43:00,76.7,72.9,29.99,ESE,113,1.1,1.8,88,0.00,,,0.01,WUHU216HW,2013-06-01 12:43:00,
2013-06-01 08:48:00,76.9,73.1,29.99,ENE,68,0.9,2.0,88,0.00,,,0.01,WUHU216HW,2013-06-01 12:48:00,
2013-06-01 08:53:00,76.9,73.1,29.99,ESE,113,2.7,2.7,88,0.00,,,0.01,WUHU216HW,2013-06-01 12:53:00,
2013-06-01 08:59:00,77.0,73.3,29.99,ESE,113,2.9,4.7,88,0.00,,,0.01,WUHU216HW,2013-06-01 12:59:00,
2013-06-01 09:02:00,77.4,73.6,29.99,ESE,113,3.6,4.9,88,0.00,,,0.01,WUHU216HW,2013-06-01 13:02:00,
2013-06-01 09:04:00,77.4,73.6,29.99,ESE,113,3.6,4.9,88,0.00,,,0.01,WUHU216HW,2013-06-01 13:04:00,
2013-06-01 09:09:00,77.4,73.6,29.99,ESE,113,3.6,4.9,88,0.00,,,0.01,WUHU216HW,2013-06-01 13:09:00,
2013-06-01 09:34:00,79.0,74.9,29.99,WNW,293,2.7,2.7,87,0.00,,,0.01,WUHU216HW,2013-06-01 13:34:00,
2013-06-01 09:39:00,79.0,74.5,29.99,ESE,113,0.2,2.9,86,0.00,,,0.01,WUHU216HW,2013-06-01 13:39:00,
2013-06-01 09:44:00,79.0,74.5,29.99,NE,45,1.3,2.9,86,0.00,,,0.01,WUHU216HW,2013-06-01 13:44:00,
2013-06-01 09:49:00,79.2,74.7,29.99,ENE,68,0.2,4.0,86,0.00,,,0.01,WUHU216HW,2013-06-01 13:49:00,
2013-06-01 09:54:00,79.6,74.7,29.99,NNE,23,3.1,4.0,85,0.00,,,0.01,WUHU216HW,2013-06-01 13:54:00,
2013-06-01 10:00:00,79.6,74.7,29.99,ENE,68,2.2,4.0,85,0.00,,,0.01,WUHU216HW,2013-06-01 14:00:00,
2013-06-01 10:05:00,80.1,75.2,29.99,SE,135,0.4,4.0,85,0.00,,,0.01,WUHU216HW,2013-06-01 14:05:00,
2013-06-01 10:10:00,80.3,75.0,29.99,North,0,0.4,3.8,84,0.00,,,0.01,WUHU216HW,2013-06-01 14:10:00,
2013-06-01 10:15:00,80.5,75.2,30.00,NE,45,1.1,2.9,84,0.00,,,0.01,WUHU216HW,2013-06-01 14:15:00,
2013-06-01 10:20:00,80.8,75.5,30.00,ESE,113,4.7,4.7,84,0.00,,,0.01,WUHU216HW,2013-06-01 14:20:00,
2013-06-01 10:25:00,81.4,76.4,29.99,East,90,1.6,4.7,85,0.00,,,0.01,WUHU216HW,2013-06-01 14:25:00,
2013-06-01 10:30:00,81.4,75.7,29.99,ENE,68,2.5,4.0,83,0.00,,,0.01,WUHU216HW,2013-06-01 14:30:00,
2013-06-01 10:35:00,81.7,76.4,29.99,NNE,23,2.7,4.0,84,0.00,,,0.01,WUHU216HW,2013-06-01 14:35:00,
2013-06-01 10:41:00,82.1,76.4,29.99,North,0,0.4,5.6,83,0.00,,,0.01,WUHU216HW,2013-06-01 14:41:00,
2013-06-01 10:46:00,82.1,76.2,29.99,NE,45,0.9,5.6,82,0.00,,,0.01,WUHU216HW,2013-06-01 14:46:00,
2013-06-01 10:51:00,82.3,76.3,29.99,ENE,68,2.0,5.4,82,0.00,,,0.01,WUHU216HW,2013-06-01 14:51:00,
2013-06-01 10:56:00,82.8,76.8,29.99,NE,45,1.3,5.4,82,0.00,,,0.01,WUHU216HW,2013-06-01 14:56:00,
2013-06-01 11:01:00,83.2,77.1,29.99,ENE,68,2.9,2.9,82,0.00,,,0.01,WUHU216HW,2013-06-01 15:01:00,
2013-06-01 11:06:00,83.5,77.5,29.99,SE,135,1.1,2.9,82,0.00,,,0.01,WUHU216HW,2013-06-01 15:06:00,
2013-06-01 11:11:00,83.9,77.4,29.99,SSE,158,0.9,2.2,81,0.00,,,0.01,WUHU216HW,2013-06-01 15:11:00,
2013-06-01 11:16:00,84.6,77.4,29.99,NE,45,1.8,2.2,79,0.00,,,0.01,WUHU216HW,2013-06-01 15:16:00,
2013-06-01 11:22:00,84.6,77.4,29.99,SSE,158,3.8,3.8,79,0.00,,,0.01,WUHU216HW,2013-06-01 15:22:00,
2013-06-01 11:27:00,85.0,77.8,29.99,ESE,113,2.2,5.1,79,0.00,,,0.01,WUHU216HW,2013-06-01 15:27:00,
2013-06-01 11:32:00,85.7,78.0,29.99,NNW,338,0.4,5.1,78,0.00,,,0.01,WUHU216HW,2013-06-01 15:32:00,
2013-06-01 11:37:00,85.7,78.0,29.99,ESE,113,2.5,3.4,78,0.00,,,0.01,WUHU216HW,2013-06-01 15:37:00,
2013-06-01 11:42:00,86.2,77.8,29.99,ESE,113,0.4,2.5,76,0.00,,,0.01,WUHU216HW,2013-06-01 15:42:00,
2013-06-01 11:47:00,86.4,77.9,29.99,ESE,113,0.7,2.5,76,0.00,,,0.01,WUHU216HW,2013-06-01 15:47:00,
2013-06-01 11:52:00,86.8,78.0,29.99,SSW,203,0.4,3.4,75,0.00,,,0.01,WUHU216HW,2013-06-01 15:52:00,
2013-06-01 11:57:00,87.5,77.8,29.99,ESE,113,0.9,4.5,73,0.00,,,0.01,WUHU216HW,2013-06-01 15:57:00,
2013-06-01 12:03:00,87.8,78.1,29.99,SSW,203,0.2,4.5,73,0.00,,,0.01,WUHU216HW,2013-06-01 16:03:00,
2013-06-01 12:08:00,88.4,78.7,29.99,SSE,158,0.9,3.8,73,0.00,,,0.01,WUHU216HW,2013-06-01 16:08:00,
2013-06-01 12:13:00,88.7,78.2,29.99,SE,135,1.8,2.9,71,0.00,,,0.01,WUHU216HW,2013-06-01 16:13:00,
2013-06-01 12:18:00,88.2,78.0,29.99,NNE,23,0.7,2.7,72,0.00,,,0.01,WUHU216HW,2013-06-01 16:18:00,
2013-06-01 12:23:00,87.7,77.5,29.98,NNE,23,0.2,2.5,72,0.00,,,0.01,WUHU216HW,2013-06-01 16:23:00,
2013-06-01 12:28:00,87.5,77.4,29.98,SW,225,0.4,1.6,72,0.00,,,0.01,WUHU216HW,2013-06-01 16:28:00,
2013-06-01 12:33:00,87.8,78.1,29.98,WNW,293,1.1,2.0,73,0.00,,,0.01,WUHU216HW,2013-06-01 16:33:00,
2013-06-01 12:38:00,87.7,78.0,29.98,SSW,203,2.5,2.7,73,0.00,,,0.01,WUHU216HW,2013-06-01 16:38:00,
2013-06-01 12:44:00,87.3,78.0,29.98,East,90,3.1,5.1,74,0.00,,,0.01,WUHU216HW,2013-06-01 16:44:00,
2013-06-01 12:49:00,86.6,77.3,29.98,SSW,203,2.2,5.1,74,0.00,,,0.01,WUHU216HW,2013-06-01 16:49:00,
2013-06-01 12:54:00,86.4,77.6,29.98,SSW,203,2.5,4.0,75,0.00,,,0.01,WUHU216HW,2013-06-01 16:54:00,
2013-06-01 12:59:00,86.4,77.9,29.98,South,180,0.4,2.7,76,0.00,,,0.01,WUHU216HW,2013-06-01 16:59:00,
2013-06-01 13:04:00,86.6,78.1,29.98,West,270,3.4,3.4,76,0.00,,,0.01,WUHU216HW,2013-06-01 17:04:00,
2013-06-01 13:09:00,86.9,78.5,29.97,West,270,0.7,3.4,76,0.00,,,0.01,WUHU216HW,2013-06-01 17:09:00,
2013-06-01 13:14:00,86.9,78.0,29.97,NW,315,1.1,3.8,75,0.00,,,0.01,WUHU216HW,2013-06-01 17:14:00,
2013-06-01 13:19:00,86.6,78.1,29.97,SW,225,0.4,3.8,76,0.00,,,0.01,WUHU216HW,2013-06-01 17:19:00,
2013-06-01 13:24:00,86.9,78.5,29.97,SSE,158,2.0,3.4,76,0.00,,,0.01,WUHU216HW,2013-06-01 17:24:00,
2013-06-01 13:30:00,87.3,78.9,29.97,South,180,1.8,3.4,76,0.00,,,0.01,WUHU216HW,2013-06-01 17:30:00,
2013-06-01 13:35:00,87.8,79.4,29.97,SW,225,2.5,2.7,76,0.00,,,0.01,WUHU216HW,2013-06-01 17:35:00,
2013-06-01 13:40:00,88.4,78.7,29.97,West,270,2.7,4.5,73,0.00,,,0.01,WUHU216HW,2013-06-01 17:40:00,
2013-06-01 13:45:00,88.7,79.4,29.96,SW,225,1.3,4.5,74,0.00,,,0.01,WUHU216HW,2013-06-01 17:45:00,
2013-06-01 13:50:00,89.3,79.5,29.96,SSE,158,1.6,3.8,73,0.00,,,0.01,WUHU216HW,2013-06-01 17:50:00,
2013-06-01 13:55:00,89.3,79.1,29.96,SSE,158,2.5,3.8,72,0.00,,,0.01,WUHU216HW,2013-06-01 17:55:00,
2013-06-01 14:00:00,89.3,79.1,29.96,SSE,158,2.5,3.8,72,0.00,,,0.01,WUHU216HW,2013-06-01 18:00:00,
2013-06-01 14:05:00,89.1,78.9,29.96,South,180,2.7,4.0,72,0.00,,,0.01,WUHU216HW,2013-06-01 18:05:00,
2013-06-01 14:10:00,89.5,79.3,29.96,SW,225,1.3,4.0,72,0.00,,,0.01,WUHU216HW,2013-06-01 18:10:00,
2013-06-01 14:16:00,90.2,79.9,29.95,WSW,248,2.0,3.4,72,0.00,,,0.01,WUHU216HW,2013-06-01 18:16:00,
2013-06-01 14:21:00,90.7,80.0,29.95,South,180,1.6,3.6,71,0.00,,,0.01,WUHU216HW,2013-06-01 18:21:00,
2013-06-01 14:26:00,90.9,79.8,29.95,West,270,4.0,4.0,70,0.00,,,0.01,WUHU216HW,2013-06-01 18:26:00,
2013-06-01 14:31:00,91.1,79.5,29.95,WSW,248,0.7,4.0,69,0.00,,,0.01,WUHU216HW,2013-06-01 18:31:00,
2013-06-01 14:36:00,91.6,80.0,29.95,SSW,203,1.3,2.2,69,0.00,,,0.01,WUHU216HW,2013-06-01 18:36:00,
2013-06-01 14:41:00,92.2,80.1,29.94,SSW,203,1.1,2.2,68,0.00,,,0.01,WUHU216HW,2013-06-01 18:41:00,
2013-06-01 14:46:00,92.3,79.7,29.95,WSW,248,1.8,3.6,67,0.00,,,0.01,WUHU216HW,2013-06-01 18:46:00,
2013-06-01 14:51:00,92.2,78.7,29.95,SSE,158,2.7,3.6,65,0.00,,,0.01,WUHU216HW,2013-06-01 18:51:00,
2013-06-01 14:56:00,92.3,79.7,29.95,South,180,0.7,2.7,67,0.00,,,0.01,WUHU216HW,2013-06-01 18:56:00,
2013-06-01 15:01:00,92.2,78.7,29.94,SSE,158,0.2,1.8,65,0.00,,,0.01,WUHU216HW,2013-06-01 19:01:00,
2013-06-01 15:06:00,92.0,78.9,29.94,South,180,0.7,2.5,66,0.00,,,0.01,WUHU216HW,2013-06-01 19:06:00,
2013-06-01 15:12:00,91.4,77.9,29.94,SSW,203,0.7,2.7,65,0.00,,,0.01,WUHU216HW,2013-06-01 19:12:00,
2013-06-01 15:17:00,91.1,78.1,29.94,SSE,158,1.3,3.4,66,0.00,,,0.01,WUHU216HW,2013-06-01 19:17:00,
2013-06-01 15:22:00,91.3,78.2,29.93,SSE,158,1.8,3.4,66,0.00,,,0.01,WUHU216HW,2013-06-01 19:22:00,
2013-06-01 15:27:00,91.4,77.9,29.94,West,270,1.1,2.5,65,0.00,,,0.01,WUHU216HW,2013-06-01 19:27:00,
2013-06-01 15:32:00,91.4,78.8,29.94,SSE,158,1.3,2.5,67,0.00,,,0.01,WUHU216HW,2013-06-01 19:32:00,
2013-06-01 15:37:00,91.4,78.4,29.93,SSE,158,1.3,2.5,66,0.00,,,0.01,WUHU216HW,2013-06-01 19:37:00,
2013-06-01 15:42:00,91.3,78.2,29.93,SW,225,1.1,3.1,66,0.00,,,0.01,WUHU216HW,2013-06-01 19:42:00,
2013-06-01 15:47:00,91.1,78.6,29.93,South,180,1.1,3.8,67,0.00,,,0.01,WUHU216HW,2013-06-01 19:47:00,
2013-06-01 15:52:00,91.4,77.5,29.93,South,180,1.1,3.8,64,0.00,,,0.01,WUHU216HW,2013-06-01 19:52:00,
2013-06-01 15:57:00,91.6,78.6,29.93,SW,225,0.9,2.9,66,0.00,,,0.01,WUHU216HW,2013-06-01 19:57:00,
2013-06-01 16:03:00,92.0,78.5,29.94,SW,225,1.3,3.6,65,0.00,,,0.01,WUHU216HW,2013-06-01 20:03:00,
2013-06-01 16:08:00,92.3,78.4,29.94,SSE,158,3.6,3.6,64,0.00,,,0.01,WUHU216HW,2013-06-01 20:08:00,
2013-06-01 16:13:00,92.3,78.8,29.94,South,180,1.6,3.6,65,0.00,,,0.01,WUHU216HW,2013-06-01 20:13:00,
2013-06-01 16:18:00,92.5,79.0,29.93,SSE,158,3.6,3.6,65,0.00,,,0.01,WUHU216HW,2013-06-01 20:18:00,
2013-06-01 16:23:00,92.9,78.5,29.94,SE,135,1.3,3.6,63,0.00,,,0.01,WUHU216HW,2013-06-01 20:23:00,
2013-06-01 16:28:00,92.5,78.1,29.94,SSE,158,1.8,3.1,63,0.00,,,0.01,WUHU216HW,2013-06-01 20:28:00,
2013-06-01 16:33:00,91.8,77.9,29.94,SSW,203,1.1,2.5,64,0.00,,,0.01,WUHU216HW,2013-06-01 20:33:00,
2013-06-01 16:38:00,91.3,77.3,29.94,SSW,203,0.4,2.0,64,0.00,,,0.01,WUHU216HW,2013-06-01 20:38:00,
2013-06-01 16:44:00,90.9,77.0,29.94,SW,225,0.4,3.8,64,0.00,,,0.01,WUHU216HW,2013-06-01 20:44:00,
2013-06-01 16:49:00,90.4,76.5,29.94,WSW,248,1.3,3.8,64,0.00,,,0.01,WUHU216HW,2013-06-01 20:49:00,
2013-06-01 16:54:00,90.0,76.7,29.94,SSW,203,1.1,1.3,65,0.00,,,0.01,WUHU216HW,2013-06-01 20:54:00,
2013-06-01 16:59:00,89.8,77.0,29.94,SSW,203,0.2,2.5,66,0.00,,,0.01,WUHU216HW,2013-06-01 20:59:00,
2013-06-01 17:04:00,90.0,77.1,29.94,SSW,203,2.0,3.4,66,0.00,,,0.01,WUHU216HW,2013-06-01 21:04:00,
2013-06-01 17:09:00,90.0,77.1,29.93,WSW,248,2.0,3.4,66,0.00,,,0.01,WUHU216HW,2013-06-01 21:09:00,
2013-06-01 17:14:00,89.8,77.0,29.94,SSE,158,0.4,3.4,66,0.00,,,0.01,WUHU216HW,2013-06-01 21:14:00,
2013-06-01 17:19:00,89.6,77.2,29.94,SSE,158,2.7,3.1,67,0.00,,,0.01,WUHU216HW,2013-06-01 21:19:00,
2013-06-01 17:25:00,89.6,77.2,29.94,SSW,203,1.6,3.1,67,0.00,,,0.01,WUHU216HW,2013-06-01 21:25:00,
2013-06-01 17:30:00,89.6,77.2,29.95,ESE,113,0.4,2.9,67,0.00,,,0.01,WUHU216HW,2013-06-01 21:30:00,
2013-06-01 17:35:00,89.3,77.0,29.95,SW,225,1.1,2.9,67,0.00,,,0.01,WUHU216HW,2013-06-01 21:35:00,
2013-06-01 17:40:00,89.1,76.8,29.95,SSW,203,0.0,1.8,67,0.00,,,0.01,WUHU216HW,2013-06-01 21:40:00,
2013-06-01 17:45:00,88.7,76.9,29.95,SW,225,0.4,1.8,68,0.00,,,0.01,WUHU216HW,2013-06-01 21:45:00,
2013-06-01 17:50:00,88.2,76.3,29.95,WSW,248,0.9,1.8,68,0.00,,,0.01,WUHU216HW,2013-06-01 21:50:00,
2013-06-01 17:55:00,87.8,76.0,29.95,SSE,158,1.3,1.8,68,0.00,,,0.01,WUHU216HW,2013-06-01 21:55:00,
2013-06-01 18:00:00,87.5,76.1,29.95,NNE,23,0.4,1.8,69,0.00,,,0.01,WUHU216HW,2013-06-01 22:00:00,
2013-06-01 18:06:00,86.4,75.1,29.96,ESE,113,0.7,4.0,69,0.00,,,0.01,WUHU216HW,2013-06-01 22:06:00,
2013-06-01 18:11:00,85.0,74.5,29.96,ENE,68,1.8,4.7,71,0.00,,,0.01,WUHU216HW,2013-06-01 22:11:00,
2013-06-01 18:16:00,83.9,74.3,29.96,North,0,2.9,4.7,73,0.00,,,0.01,WUHU216HW,2013-06-01 22:16:00,
2013-06-01 18:21:00,83.0,73.8,29.96,NE,45,2.9,4.7,74,0.00,,,0.01,WUHU216HW,2013-06-01 22:21:00,
2013-06-01 18:26:00,82.6,73.9,29.96,NE,45,2.2,3.6,75,0.00,,,0.01,WUHU216HW,2013-06-01 22:26:00,
2013-06-01 18:31:00,82.6,73.9,29.96,NNW,338,0.2,2.9,75,0.00,,,0.01,WUHU216HW,2013-06-01 22:31:00,
2013-06-01 18:36:00,82.8,74.4,29.95,NNE,23,0.4,1.8,76,0.00,,,0.01,WUHU216HW,2013-06-01 22:36:00,
2013-06-01 18:41:00,83.2,74.8,29.95,SE,135,0.0,1.1,76,0.00,,,0.01,WUHU216HW,2013-06-01 22:41:00,
2013-06-01 18:47:00,83.5,74.7,29.95,North,0,0.0,0.2,75,0.00,,,0.01,WUHU216HW,2013-06-01 22:47:00,
2013-06-01 18:52:00,83.9,75.1,29.94,WSW,248,0.0,1.1,75,0.00,,,0.01,WUHU216HW,2013-06-01 22:52:00,
2013-06-01 18:57:00,83.9,75.1,29.95,WSW,248,0.0,1.8,75,0.00,,,0.01,WUHU216HW,2013-06-01 22:57:00,
2013-06-01 19:02:00,84.2,75.4,29.96,SE,135,1.1,1.8,75,0.00,,,0.01,WUHU216HW,2013-06-01 23:02:00,
2013-06-01 19:07:00,84.2,75.4,29.96,NE,45,1.8,1.8,75,0.00,,,0.01,WUHU216HW,2013-06-01 23:07:00,
2013-06-01 19:12:00,83.9,75.1,29.96,SSE,158,3.8,3.8,75,0.00,,,0.01,WUHU216HW,2013-06-01 23:12:00,
2013-06-01 19:17:00,83.7,74.9,29.97,East,90,1.8,3.8,75,0.00,,,0.01,WUHU216HW,2013-06-01 23:17:00,
2013-06-01 19:22:00,83.5,74.7,29.97,ESE,113,3.6,5.6,75,0.00,,,0.01,WUHU216HW,2013-06-01 23:22:00,
2013-06-01 19:27:00,83.2,74.4,29.98,NE,45,1.1,6.7,75,0.00,,,0.01,WUHU216HW,2013-06-01 23:27:00,
2013-06-01 19:33:00,82.8,74.4,29.98,NE,45,1.6,6.7,76,0.00,,,0.01,WUHU216HW,2013-06-01 23:33:00,
2013-06-01 19:38:00,82.3,74.0,29.98,East,90,1.3,5.6,76,0.00,,,0.01,WUHU216HW,2013-06-01 23:38:00,
2013-06-01 19:43:00,81.7,73.8,29.98,ESE,113,1.8,3.8,77,0.00,,,0.01,WUHU216HW,2013-06-01 23:43:00,
2013-06-01 19:48:00,81.5,73.3,29.98,ESE,113,2.5,4.3,76,0.00,,,0.01,WUHU216HW,2013-06-01 23:48:00,
2013-06-01 19:53:00,81.5,73.3,29.98,East,90,1.6,4.3,76,0.00,,,0.01,WUHU216HW,2013-06-01 23:53:00,
2013-06-01 19:58:00,81.4,73.1,29.98,SE,135,3.8,4.3,76,0.00,,,0.01,WUHU216HW,2013-06-01 23:58:00,
2013-06-01 20:03:00,81.4,73.1,29.98,East,90,2.9,4.3,76,0.00,,,0.01,WUHU216HW,2013-06-02 00:03:00,
2013-06-01 20:08:00,81.2,72.9,29.98,ENE,68,4.3,4.5,76,0.00,,,0.01,WUHU216HW,2013-06-02 00:08:00,
2013-06-01 20:13:00,81.0,72.7,29.98,ENE,68,2.2,6.9,76,0.00,,,0.01,WUHU216HW,2013-06-02 00:13:00,
2013-06-01 20:19:00,80.6,72.0,29.99,NE,45,2.2,6.9,75,0.00,,,0.01,WUHU216HW,2013-06-02 00:19:00,
2013-06-01 20:24:00,80.5,71.8,29.98,ESE,113,0.9,6.3,75,0.00,,,0.01,WUHU216HW,2013-06-02 00:24:00,
2013-06-01 20:29:00,80.5,71.8,29.98,ESE,113,1.8,3.8,75,0.00,,,0.01,WUHU216HW,2013-06-02 00:29:00,
2013-06-01 20:34:00,80.1,71.5,29.98,SSE,158,0.7,3.8,75,0.00,,,0.01,WUHU216HW,2013-06-02 00:34:00,
2013-06-01 20:39:00,79.9,71.3,29.98,SE,135,0.4,2.9,75,0.00,,,0.01,WUHU216HW,2013-06-02 00:39:00,
2013-06-01 20:44:00,79.9,71.3,29.97,ENE,68,1.3,2.2,75,0.00,,,0.01,WUHU216HW,2013-06-02 00:44:00,
2013-06-01 20:49:00,79.6,71.3,29.97,East,90,1.6,2.5,76,0.00,,,0.01,WUHU216HW,2013-06-02 00:49:00,
2013-06-01 20:54:00,79.6,71.3,29.97,East,90,0.2,2.5,76,0.00,,,0.01,WUHU216HW,2013-06-02 00:54:00,
2013-06-01 21:00:00,79.6,71.7,29.96,ESE,113,0.0,1.1,77,0.00,,,0.01,WUHU216HW,2013-06-02 01:00:00,
2013-06-01 21:05:00,79.6,71.7,29.97,ESE,113,0.0,0.0,77,0.00,,,0.01,WUHU216HW,2013-06-02 01:05:00,
2013-06-01 21:10:00,79.6,72.1,29.96,ESE,113,0.0,0.2,78,0.00,,,0.01,WUHU216HW,2013-06-02 01:10:00,
2013-06-01 21:15:00,79.6,72.1,29.96,SSW,203,0.0,0.2,78,0.00,,,0.01,WUHU216HW,2013-06-02 01:15:00,
2013-06-01 21:20:00,79.4,71.9,29.96,West,270,0.4,0.4,78,0.00,,,0.01,WUHU216HW,2013-06-02 01:20:00,
2013-06-01 21:25:00,79.0,72.0,29.96,West,270,0.2,1.8,79,0.00,,,0.01,WUHU216HW,2013-06-02 01:25:00,
2013-06-01 21:30:00,78.8,71.8,29.96,NW,315,0.4,1.6,79,0.00,,,0.01,WUHU216HW,2013-06-02 01:30:00,
2013-06-01 21:35:00,78.8,71.8,29.96,West,270,1.1,1.1,79,0.00,,,0.01,WUHU216HW,2013-06-02 01:35:00,
2013-06-01 21:40:00,78.7,72.0,29.96,WNW,293,0.0,1.1,80,0.01,,,0.02,WUHU216HW,2013-06-02 01:40:00,
2013-06-01 21:45:00,78.5,71.8,29.96,NW,315,0.4,1.1,80,0.01,,,0.02,WUHU216HW,2013-06-02 01:45:00,
2013-06-01 21:51:00,78.5,72.2,29.96,NW,315,0.4,1.1,81,0.01,,,0.02,WUHU216HW,2013-06-02 01:51:00,
2013-06-01 21:56:00,78.5,72.2,29.96,NW,315,0.0,1.1,81,0.01,,,0.02,WUHU216HW,2013-06-02 01:56:00,
2013-06-01 22:01:00,78.3,72.0,29.96,NW,315,0.4,0.9,81,0.01,,,0.02,WUHU216HW,2013-06-02 02:01:00,
2013-06-01 22:06:00,78.1,71.8,29.96,WNW,293,0.0,0.4,81,0.01,,,0.02,WUHU216HW,2013-06-02 02:06:00,
2013-06-01 22:11:00,78.1,71.8,29.95,NW,315,0.4,0.4,81,0.01,,,0.02,WUHU216HW,2013-06-02 02:11:00,
2013-06-01 22:16:00,78.1,71.8,29.95,NW,315,0.0,0.7,81,0.01,,,0.02,WUHU216HW,2013-06-02 02:16:00,
2013-06-01 22:21:00,78.1,71.8,29.96,NW,315,0.0,0.7,81,0.01,,,0.02,WUHU216HW,2013-06-02 02:21:00,
2013-06-01 22:26:00,78.1,71.8,29.96,NNE,23,0.7,0.7,81,0.02,,,0.02,WUHU216HW,2013-06-02 02:26:00,
2013-06-01 22:31:00,78.1,71.8,29.96,SE,135,0.7,1.1,81,0.02,,,0.03,WUHU216HW,2013-06-02 02:31:00,
2013-06-01 22:37:00,78.1,72.2,29.97,SE,135,0.0,1.3,82,0.01,,,0.03,WUHU216HW,2013-06-02 02:37:00,
2013-06-01 22:42:00,78.1,72.2,29.97,SE,135,0.0,1.3,82,0.01,,,0.03,WUHU216HW,2013-06-02 02:42:00,
2013-06-01 22:47:00,78.1,72.2,29.97,SE,135,0.0,0.0,82,0.01,,,0.03,WUHU216HW,2013-06-02 02:47:00,
2013-06-01 22:52:00,78.1,72.2,29.98,SE,135,0.0,0.0,82,0.01,,,0.03,WUHU216HW,2013-06-02 02:52:00,
2013-06-01 22:57:00,78.1,72.2,29.99,ESE,113,1.6,1.6,82,0.01,,,0.03,WUHU216HW,2013-06-02 02:57:00,
2013-06-01 23:03:00,77.9,72.0,29.99,NNE,23,1.1,1.6,82,0.01,,,0.03,WUHU216HW,2013-06-02 03:03:00,
2013-06-01 23:08:00,77.6,71.6,29.99,SE,135,1.6,1.8,82,0.01,,,0.03,WUHU216HW,2013-06-02 03:08:00,
2013-06-01 23:13:00,77.6,72.0,30.00,SE,135,1.1,1.8,83,0.01,,,0.03,WUHU216HW,2013-06-02 03:13:00,
2013-06-01 23:18:00,77.4,71.8,30.00,SSE,158,2.0,3.4,83,0.01,,,0.03,WUHU216HW,2013-06-02 03:18:00,
2013-06-01 23:23:00,77.2,71.3,30.00,SSE,158,2.9,3.4,82,0.01,,,0.03,WUHU216HW,2013-06-02 03:23:00,
2013-06-01 23:28:00,77.0,71.1,29.99,ESE,113,1.6,2.9,82,0.00,,,0.03,WUHU216HW,2013-06-02 03:28:00,
2013-06-01 23:33:00,77.0,71.1,29.99,ESE,113,1.1,2.2,82,0.00,,,0.03,WUHU216HW,2013-06-02 03:33:00,
2013-06-01 23:38:00,77.2,71.3,29.99,ESE,113,0.2,2.2,82,0.00,,,0.03,WUHU216HW,2013-06-02 03:38:00,
2013-06-01 23:44:00,77.2,71.3,29.99,SE,135,0.4,1.8,82,0.00,,,0.03,WUHU216HW,2013-06-02 03:44:00,
2013-06-01 23:49:00,77.4,71.5,29.99,SE,135,0.0,2.5,82,0.00,,,0.03,WUHU216HW,2013-06-02 03:49:00,
2013-06-01 23:54:00,77.4,71.5,29.99,SE,135,0.4,2.5,82,0.00,,,0.03,WUHU216HW,2013-06-02 03:54:00,
2013-06-01 23:59:00,77.4,71.5,29.99,ESE,113,0.2,1.1,82,0.00,,,0.03,WUHU216HW,2013-06-02 03:59:00,